Tracking 19906 objects as of 24-Oct-2019
HD Live streaming from Space Station
objects crossing your sky now

DELTA 1 DEB

Track DELTA 1 DEB now!
10-day predictions


NORAD ID: 13561
Int'l Code: 1978-026EY
Perigee: 735.1 km
Apogee: 972.0 km
Inclination: 99.0 °
Period: 101.9 minutes
Semi major axis: 7224 km
RCS: 0.055 m2 (small)
Launch date: March 5, 1978
Source: United States (US)
Launch site: AIR FORCE WESTERN TEST RANGE (AFWTR)

Note: This is SATELLITE DEBRIS
aabbcc
Your satellite tracking list
Your tracking list is empty




NASA's NSSDC Master Catalog

Two Line Element Set (TLE):
1 13561U 78026EY  19296.92237586 +.00000724 +00000-0 +35689-3 0  9995
2 13561 098.9762 080.4791 0163977 047.3878 070.5913 14.13793830951692
Source of the keplerian elements: AFSPC